Satellite-Ground Cal/Val Region Overpasses Predictions

Prediction of Satellite NPP Overpassing Cal/Val Region: PacNW

Region Location: (Latitude: 10.00, Longitude: 139.50) to (Latitude: 22.70, Longitude: 165.60).

Table of predicted overpasses for the next 14.0 days since TLE Epoch: 11/17/2017
Interval Starting Time Starting Location Ending Time Ending Location
1 11/18/2017 03:43:17 ( 10.04, 143.93) 11/18/2017 03:46:52 ( 22.66, 140.93)
2 11/18/2017 14:34:44 ( 18.85, 165.59) 11/18/2017 14:37:14 ( 10.05, 163.53)
3 11/18/2017 16:15:09 ( 22.66, 141.15) 11/18/2017 16:17:05 ( 15.85, 139.50)
4 11/19/2017 03:24:14 ( 10.02, 148.69) 11/19/2017 03:27:49 ( 22.64, 145.69)
5 11/19/2017 15:56:07 ( 22.68, 145.91) 11/19/2017 15:59:43 ( 10.00, 142.90)
6 11/20/2017 03:05:13 ( 10.06, 153.44) 11/20/2017 03:08:48 ( 22.68, 150.44)
7 11/20/2017 15:37:05 ( 22.64, 150.66) 11/20/2017 15:40:40 ( 10.02, 147.66)
8 11/21/2017 02:46:10 ( 10.04, 158.20) 11/21/2017 02:49:45 ( 22.66, 155.20)
9 11/21/2017 15:18:03 ( 22.66, 155.42) 11/21/2017 15:21:38 ( 10.04, 152.42)
10 11/22/2017 02:27:08 ( 10.02, 162.96) 11/22/2017 02:30:43 ( 22.64, 159.96)
11 11/22/2017 14:59:00 ( 22.68, 160.19) 11/22/2017 15:02:36 ( 10.00, 157.17)
12 11/23/2017 02:10:40 ( 19.10, 165.59) 11/23/2017 02:11:41 ( 22.68, 164.71)
13 11/23/2017 03:49:35 ( 10.01, 142.34) 11/23/2017 03:52:59 ( 21.99, 139.51)
14 11/23/2017 14:39:59 ( 22.64, 164.93) 11/23/2017 14:43:34 ( 10.02, 161.94)
15 11/23/2017 16:21:28 ( 22.70, 139.57) 11/23/2017 16:21:32 ( 22.46, 139.51)
16 11/24/2017 03:30:34 ( 10.05, 147.09) 11/24/2017 03:34:09 ( 22.67, 144.09)
17 11/24/2017 16:02:26 ( 22.66, 144.32) 11/24/2017 16:06:01 ( 10.04, 141.32)
18 11/25/2017 03:11:31 ( 10.03, 151.85) 11/25/2017 03:15:06 ( 22.65, 148.86)
19 11/25/2017 15:43:24 ( 22.67, 149.08) 11/25/2017 15:46:59 ( 10.05, 146.08)
20 11/26/2017 02:52:29 ( 10.01, 156.62) 11/26/2017 02:56:05 ( 22.69, 153.60)
21 11/26/2017 15:24:22 ( 22.69, 153.84) 11/26/2017 15:27:58 ( 10.01, 150.83)
22 11/27/2017 02:33:27 ( 10.05, 161.36) 11/27/2017 02:37:02 ( 22.68, 158.36)
23 11/27/2017 15:05:20 ( 22.65, 158.59) 11/27/2017 15:08:55 ( 10.03, 155.59)
24 11/28/2017 02:15:04 ( 12.33, 165.60) 11/28/2017 02:18:00 ( 22.66, 163.13)
25 11/28/2017 03:55:55 ( 10.04, 140.75) 11/28/2017 03:57:26 ( 15.39, 139.51)
26 11/28/2017 14:46:18 ( 22.67, 163.35) 11/28/2017 14:49:53 ( 10.05, 160.35)
27 11/29/2017 03:36:52 ( 10.03, 145.51) 11/29/2017 03:40:27 ( 22.65, 142.51)
28 11/29/2017 14:30:15 ( 12.12, 165.59) 11/29/2017 14:30:51 ( 10.01, 165.10)
29 11/29/2017 16:08:45 ( 22.68, 142.74) 11/29/2017 16:12:21 ( 10.00, 139.73)
30 11/30/2017 03:17:50 ( 10.01, 150.27) 11/30/2017 03:21:26 ( 22.69, 147.26)
31 11/30/2017 15:49:43 ( 22.70, 147.50) 11/30/2017 15:53:19 ( 10.02, 144.49)
32 12/01/2017 02:58:48 ( 10.05, 155.02) 12/01/2017 03:02:23 ( 22.68, 152.02)


NCC Satellite Cal/Val Overpasses Prediction Service
